[[{"header":{"parameterUnit":"m.s-1","parameterCategory":1,"la1":30.2991,"la2":30.254,"lo1":-89.0895,"lo2":-89.0444,"dy":0.0017,"dx":0.0017,"nx":28,"ny":28,"refTime":"2024-04-10T21:00:00:Z","depth":0,"parameterNumber":2,"parameterNumberName":"U-component_of_WINDS"},"data":[0,0,0,0,0,0,0,0,0,0,0,0,0,0,0,0,0,0,0,0,0,0,0,0,0,0,0,0,0,0,0,0,0,0,0,0,0,0,0,0,0,0,0,0,0,0,0,0,0,0,0,0,0,0,0,0,0,0,6.9865,6.9864,0,6.9792,6.9791,6.979,6.957,6.9565,6.9561,6.9556,6.9488,6.9491,6.9493,0,0,0,0,0,0,0,0,0,0,0,0,0,6.982,6.9822,6.9865,6.9864,6.9863,6.9792,6.9791,6.979,6.9571,6.9565,6.9559,6.9554,6.9487,6.949,6.9493,0,0,0,0,0,0,0,0,0,0,0,0,0,6.9803,6.9823,6.9865,6.9745,6.9734,6.9792,6.9791,6.979,6.9572,6.9565,6.9558,6.9551,6.9486,6.949,6.9494,6.9665,0,0,6.9506,6.9508,0,0,0,0,0,0,0,0,6.9805,6.9805,6.9764,6.9753,6.9741,6.9682,6.975,6.9748,6.9574,6.9634,6.9556,6.9547,6.9559,6.9557,6.9559,6.9662,6.9659,6.9507,6.9509,6.9511,6.9512,0,0,0,0,0,0,0,6.9806,6.9807,6.9836,6.9763,6.9749,6.9697,6.9686,6.9749,6.9639,6.9628,6.9612,6.9606,6.9551,6.9556,6.9556,6.9658,6.9507,6.951,6.9513,6.9514,6.9897,6.9904,0,0,0,0,0,0,6.9823,6.981,6.9838,6.9834,6.9755,6.9704,6.9692,6.9709,6.9637,6.9619,6.9612,6.9596,6.9552,6.9551,6.9553,6.9747,6.9511,6.9515,6.9517,6.9889,6.9899,6.9907,0,0,0,0,0,0,6.9823,6.9828,6.9841,6.9817,6.9815,6.9712,6.9733,6.9711,6.9715,6.9625,6.9605,6.9637,6.9547,6.9547,6.9638,6.9742,6.9517,6.952,6.988,6.9892,6.9903,7.0139,0,0,0,0,0,0,6.9823,6.9829,6.9892,6.982,6.9817,6.9927,6.9739,6.9715,6.9722,6.97,6.9642,6.9626,6.9541,6.9633,6.9642,6.9744,6.9523,6.987,6.9885,6.9899,7.0122,7.0158,7.0188,0,0,0,0,0,6.9822,6.9963,6.9896,6.9901,6.9893,6.9933,6.9932,6.9829,6.9731,6.9794,6.9736,6.9628,6.973,6.9644,6.9653,6.9757,6.9863,6.9881,6.9898,7.0107,7.0151,7.0188,0,0,0,0,0,0,7.0052,6.9952,6.9876,6.9998,6.9976,6.9896,6.9972,6.9879,6.9885,6.9865,6.9739,6.9728,6.9837,6.9806,6.9713,6.9919,6.9778,6.9798,6.9935,6.9975,7.0008,7.0013,6.9527,0,0,0,0,0,7.0117,7.0156,7.0067,7.0183,7.0175,7.0077,7.009,7.0013,6.9986,6.9976,6.9924,6.9904,6.9931,6.9951,6.9971,7.0117,7.0101,7.0192,7.0226,7.0253,7.0272,7.0346,7.0386,6.9964,6.9964,6.9963,0,0,7.0251,7.0201,7.0234,7.0228,7.0201,7.0247,7.007,7.0125,7.0158,6.9985,7.0066,7.0029,6.9998,7.0117,7.0167,7.0094,7.0385,7.0276,7.0298,7.0302,7.0368,7.0408,7.0444,6.9976,6.9973,6.9972,0,0,7.0519,7.0485,7.0577,7.0554,7.0515,7.0448,7.0471,7.0406,7.0373,7.0453,7.0323,7.0362,7.0411,7.0394,7.0392,7.0654,7.0554,7.0664,7.0837,7.0912,7.0945,7.0974,7.1067,7.1102,7.0683,7.0684,7.0684,0,7.0692,7.0752,7.0637,7.07,7.0702,7.0545,7.0638,7.0622,7.0594,7.0599,7.0518,7.0576,7.0544,7.0656,7.072,7.0724,7.0747,7.067,7.0949,7.0977,7.1002,7.1089,7.1125,7.0697,7.0695,7.0694,7.0693,0,7.0966,7.101,7.109,7.1063,7.1074,7.1152,7.1051,7.1076,7.0998,7.0941,7.1025,7.0981,7.0989,7.101,7.0936,7.1113,7.1069,7.0971,7.0827,7.1058,7.1137,7.117,7.0716,7.0712,7.0707,7.0704,0,0,7.1377,7.1284,7.1315,7.1301,7.1247,7.128,7.1352,7.1357,7.1381,7.1368,7.1425,7.1471,7.1379,7.1377,7.1299,7.1365,7.1574,7.1257,7.1255,7.1318,7.1767,7.1841,7.1881,7.1508,7.1514,7.1519,7.1769,0,7.1629,7.1744,7.1643,7.1778,7.1817,7.1669,7.1732,7.1707,7.1655,7.1683,7.1627,7.1661,7.1537,7.1535,7.1593,7.1537,7.1663,7.1517,7.1562,7.1565,7.1574,7.1923,7.2001,7.2239,7.18,7.1805,7.1809,0,7.1939,7.1936,7.2075,7.201,7.2023,7.2082,7.2078,7.2106,7.2076,7.2033,7.2032,7.1936,7.2004,7.1864,7.1957,7.186,7.1873,7.1848,7.1855,7.1855,7.1701,7.1932,7.2312,7.2348,7.1857,7.1853,7.185,0,7.2224,7.2255,7.2341,7.2334,7.2262,7.2306,7.2279,7.224,7.225,7.2248,7.2253,7.2261,7.2266,7.2275,7.2184,7.2091,7.2289,7.2142,7.2257,7.226,7.2305,7.2303,7.2692,7.2315,7.2315,7.2314,7.2313,0,7.2516,7.2607,7.2468,7.2521,7.2619,7.2503,7.2603,7.256,7.2528,7.2571,7.2445,7.2489,7.2367,7.24,7.233,7.2417,7.2421,7.239,7.237,7.2401,7.2405,7.2407,7.2388,7.2323,7.2321,7.2319,7.2318,0,7.2851,7.2761,7.2845,7.2769,7.2753,7.2828,7.2764,7.2811,7.2751,7.2808,7.2815,7.2722,7.2753,7.2664,7.2683,7.2636,7.2762,7.2716,7.2772,7.2758,7.2878,7.2868,7.3281,7.333,7.2923,7.2927,7.2931,0,7.3043,7.3108,7.3039,7.3057,7.3036,7.3068,7.3077,7.2966,7.298,7.295,7.3002,7.3022,7.3032,7.309,7.3025,7.3039,7.2992,7.3136,7.2993,7.3022,7.2993,7.299,7.2996,7.3166,7.3171,7.3175,7.3178,0,7.3393,7.3345,7.336,7.3361,7.3374,7.337,7.3358,7.3381,7.3262,7.3286,7.3314,7.3322,7.334,7.3362,7.3362,7.3335,7.3239,7.3224,7.3251,7.3282,7.3311,7.3296,7.2852,7.3214,7.3211,7.3208,7.3206,7.3205,7.3661,7.3712,7.367,7.3692,7.367,7.3661,7.3701,7.3645,7.3667,7.367,7.3605,7.3648,7.3616,7.3604,7.3588,7.3622,7.3556,7.3596,7.3605,7.3617,7.3636,7.3307,7.3622,7.362,7.3619,7.3618,7.3617,0,7.4003,7.3969,7.399,7.3975,7.3993,7.3896,7.3878,7.39,7.3938,7.3915,7.3927,7.3961,7.3982,7.392,7.3932,7.3971,7.3927,7.3978,7.3973,7.3969,7.3695,7.367,7.4013,7.4013,7.4013,7.4013,7.4013,7.4013,7.4183,7.4264,7.4212,7.4281,7.4246,7.4285,7.4283,7.4274,7.4255,7.4298,7.4313,7.4271,7.4233,7.4241,7.4257,7.4238,7.4248,7.4315,7.4282,7.4027,7.3988,7.3951,7.3927,7.4319,7.4319,7.4552,7.4554,7.4556]},{"header":{"parameterUnit":"m.s-1","parameterCategory":1,"la1":30.2991,"la2":30.254,"lo1":-89.0895,"lo2":-89.0444,"dy":0.0017,"dx":0.0017,"nx":28,"ny":28,"refTime":"2024-04-10T21:00:00:Z","depth":0,"parameterNumber":3,"parameterNumberName":"V-component_of_WINDS"},"data":[0,0,0,0,0,0,0,0,0,0,0,0,0,0,0,0,0,0,0,0,0,0,0,0,0,0,0,0,0,0,0,0,0,0,0,0,0,0,0,0,0,0,0,0,0,0,0,0,0,0,0,0,0,0,0,0,0,0,2.1644,2.1645,0,2.1775,2.1776,2.1778,2.1806,2.1805,2.1804,2.1803,2.194,2.1944,2.1948,0,0,0,0,0,0,0,0,0,0,0,0,0,2.142,2.1424,2.1644,2.1645,2.1647,2.1774,2.1776,2.1778,2.1806,2.1805,2.1804,2.1803,2.1938,2.1943,2.1949,0,0,0,0,0,0,0,0,0,0,0,0,0,2.153,2.1425,2.1643,2.1676,2.1681,2.1774,2.1776,2.1778,2.1807,2.1805,2.1804,2.1802,2.1936,2.1943,2.195,2.202,0,0,2.197,2.1973,0,0,0,0,0,0,0,0,2.1524,2.1539,2.167,2.1674,2.1679,2.1773,2.1747,2.1859,2.1807,2.1759,2.1803,2.1802,2.1885,2.1896,2.1924,2.2026,2.2032,2.1971,2.1975,2.1978,2.198,0,0,0,0,0,0,0,2.1516,2.1533,2.1695,2.1672,2.1677,2.1685,2.1699,2.1769,2.1829,2.1763,2.1765,2.178,2.1888,2.1917,2.1927,2.2034,2.1971,2.1977,2.1981,2.1983,2.22,2.2202,0,0,0,0,0,0,2.1503,2.1527,2.1691,2.1699,2.1596,2.169,2.1706,2.1744,2.1828,2.1839,2.1781,2.1781,2.1906,2.1919,2.1932,2.202,2.1978,2.1984,2.1988,2.2198,2.22,2.2202,0,0,0,0,0,0,2.1498,2.1517,2.1686,2.1614,2.1636,2.1696,2.1738,2.1747,2.1777,2.1842,2.1853,2.1801,2.1906,2.1923,2.1998,2.2025,2.1987,2.1993,2.2196,2.2199,2.2201,2.2195,0,0,0,0,0,0,2.1491,2.1515,2.1542,2.1614,2.1639,2.1749,2.174,2.1751,2.1788,2.1789,2.1863,2.1874,2.1906,2.1987,2.2004,2.2033,2.1999,2.2194,2.2197,2.22,2.2193,2.2197,2.22,0,0,0,0,0,2.1483,2.1536,2.1543,2.1563,2.1675,2.175,2.1765,2.1801,2.1791,2.1818,2.186,2.1871,2.2019,2.1995,2.2014,2.2046,2.2193,2.2197,2.22,2.2192,2.2196,2.22,0,0,0,0,0,0,2.1467,2.1546,2.1555,2.1633,2.1684,2.1755,2.1791,2.1805,2.1861,2.186,2.1902,2.1918,2.199,2.2026,2.1997,2.2118,2.2105,2.2113,2.2092,2.2097,2.2101,2.2091,2.2004,0,0,0,0,0,2.1472,2.1526,2.1593,2.1655,2.168,2.1731,2.1766,2.1788,2.1844,2.1866,2.1913,2.1967,2.2026,2.2063,2.2121,2.2198,2.2214,2.2229,2.2233,2.2236,2.2242,2.2285,2.2292,2.2215,2.2215,2.2215,0,0,2.1484,2.1534,2.1566,2.1653,2.1696,2.1751,2.1749,2.1809,2.1851,2.1876,2.1949,2.1985,2.2048,2.2124,2.216,2.2156,2.2267,2.2241,2.2242,2.2247,2.229,2.2297,2.2303,2.2217,2.2217,2.2216,0,0,2.1534,2.1577,2.1633,2.1676,2.174,2.1773,2.1786,2.1855,2.188,2.1954,2.1973,2.2024,2.2124,2.2168,2.2203,2.2268,2.2281,2.2286,2.2305,2.2346,2.2352,2.2358,2.2381,2.2389,2.2292,2.2292,2.2292,0,2.1541,2.1625,2.1661,2.1719,2.1756,2.178,2.1837,2.1877,2.1957,2.1983,2.1976,2.2102,2.2146,2.2232,2.2248,2.2276,2.2292,2.2278,2.2349,2.2355,2.236,2.2383,2.2391,2.2292,2.2292,2.2292,2.2292,0,2.163,2.1688,2.1725,2.1801,2.1843,2.19,2.1945,2.1983,2.2002,2.2036,2.211,2.2164,2.2232,2.2254,2.2274,2.2344,2.2339,2.234,2.2329,2.2367,2.2389,2.2398,2.2292,2.2292,2.2292,2.2292,0,0,2.1674,2.1767,2.1781,2.1815,2.1887,2.1933,2.1991,2.2057,2.2089,2.2143,2.2193,2.2276,2.2277,2.2317,2.2342,2.2378,2.2426,2.2375,2.2377,2.2383,2.2505,2.2504,2.2513,2.2434,2.2436,2.2438,2.25,0,2.1732,2.1836,2.187,2.1957,2.2011,2.2034,2.2084,2.2134,2.2167,2.2218,2.2255,2.2313,2.231,2.2335,2.2371,2.2412,2.2451,2.2408,2.2482,2.2484,2.2465,2.2525,2.2524,2.258,2.2509,2.251,2.2511,0,2.1815,2.1869,2.1961,2.2025,2.2049,2.2094,2.2157,2.2205,2.2262,2.2283,2.2327,2.2349,2.2411,2.2395,2.2481,2.2451,2.2483,2.2507,2.251,2.2518,2.25,2.2535,2.2599,2.2607,2.2525,2.2524,2.2523,0,2.1837,2.1934,2.2001,2.2029,2.2106,2.2137,2.2171,2.2226,2.2264,2.2318,2.2343,2.2405,2.2438,2.2486,2.2523,2.2508,2.2606,2.2593,2.2625,2.2624,2.2645,2.2643,2.2715,2.2665,2.2665,2.2665,2.2665,0,2.1899,2.1955,2.2012,2.2053,2.2116,2.2153,2.2214,2.2249,2.2298,2.2347,2.2371,2.2416,2.2463,2.2514,2.2544,2.261,2.2626,2.2645,2.2652,2.2643,2.264,2.2664,2.2661,2.2667,2.2667,2.2666,2.2666,0,2.1935,2.1976,2.205,2.2117,2.2135,2.2178,2.2235,2.2276,2.2309,2.2371,2.2387,2.244,2.2502,2.2544,2.2623,2.2643,2.2715,2.2721,2.2695,2.2699,2.2728,2.2725,2.2819,2.2833,2.2773,2.2774,2.2774,0,2.1972,2.2015,2.2085,2.2119,2.2153,2.2207,2.2245,2.2284,2.2322,2.2389,2.2422,2.2485,2.2538,2.2635,2.2681,2.2742,2.275,2.2779,2.276,2.2748,2.275,2.2747,2.2752,2.2782,2.2782,2.2783,2.2783,0,2.2033,2.205,2.2103,2.2164,2.2208,2.2257,2.2307,2.2333,2.238,2.2422,2.2485,2.2526,2.2606,2.2668,2.2733,2.2768,2.2784,2.2788,2.2799,2.279,2.2773,2.2782,2.2703,2.2786,2.2786,2.2786,2.2785,2.2785,2.207,2.2109,2.2164,2.2223,2.2264,2.2309,2.2351,2.2389,2.2442,2.251,2.2529,2.2595,2.265,2.2738,2.2774,2.2826,2.2824,2.2839,2.2843,2.2846,2.2846,2.2764,2.2838,2.2838,2.2838,2.2838,2.2838,0,2.2132,2.2168,2.2221,2.2289,2.2335,2.2344,2.24,2.2437,2.2494,2.2544,2.2595,2.2667,2.2727,2.2777,2.2839,2.2871,2.288,2.2886,2.2884,2.2892,2.2845,2.2829,2.2878,2.2878,2.2878,2.2878,2.2878,2.2878,2.2169,2.2235,2.2259,2.2346,2.2382,2.2446,2.2476,2.2518,2.2558,2.2637,2.2687,2.2719,2.2769,2.2835,2.2891,2.2904,2.2926,2.293,2.2945,2.29,2.2896,2.2891,2.2877,2.2935,2.2935,2.2988,2.2989,2.2989]}]]